Voltar ao catálogo

SL-12 DEB

AtivoUNKNOWN
NORAD 43334·DEBRIS·🇷🇺 Russia

Lançado Jan 10, 1989 de Baikonur Cosmodrome

Loading…

Próximas Passagens (próximas 24 horas)

TLE

AtualizadoSource: Space-Track

Época: Sep 13, 2026, 11:46 UTC

1 43334U 89001Y   26256.49080097 -.00001352  00000-0 -22657-1 0  9999
2 43334  64.5724  64.9135 1712333 342.4920  12.3257  9.86102706169824

Acompanhe SL-12 DEB em tempo real com AllMySat

Download on the App Store